SL-16 DEB, 29094

Orbit data source: Space-Track

SL-16 DEB, 29094 is space debris in LEO originally from a launch on Fri, 25 Dec 1992 UTC launched from the Tyuratam Missile And Space Complex (TTMTR). Debris objects in space refer to the collection of defunct objects orbiting the Earth. Examples of debris include non-operational satellites, rocket bodies, and fragments generated from explosions, collisions, or faulty payload assembly.

Loading next visibility...
Identifier
29094, 1992-093JQ
Orbit
LEO
Country
Flag of CISCIS
Related business
Manufacturer
Unknown
Mission
Spacecraft
Bus & Motor
Unknown
Mass
Unknown
Launch date (UTC)
1992-12-25 (33 years ago)
Launch vehicle
Unknown
Launch site
Tyuratam Missile And Space Complex (TTMTR)
Object type
Payload
Rocket body
Debris
Shape & HBR
Unknown shape, 0.1 m
Radar Cross Section
Small (<0.1 m²)

Expand to show TLE details & history
Last TLE update: 2 months ago

TLE from 2 months ago
0 SL-16 DEB
1 29094U 92093JQ  25284.87900742  .00037828  00000-0  55509-2 0  9999
2 29094  71.2690 339.2380 0060324  15.9461 344.3575 14.74097501195396
Epoch: 2025-10-11T21:05Z
TLE epoch observation values (Epoch: 2025-10-11T21:05:46.241Z)
Latitude
0.00004°
Longitude
2.09118°
Altitude
609.7 km
Speed
7.577 km/s
True Right ascension
22h 36m 57s
True Declination
0° 00' 00"
Sunlit
Object was in full shadow at epoch
Visualization orbit readout
Latitude
Unknown
Longitude
Unknown
Altitude
Unknown
Speed
Unknown
Apparent Right ascension
Unknown
Apparent Declination
Unknown
Sunlit
N/A
Visualization observer readout
Local Sidereal Time
05:32:14
Azimuth
Unknown
Elevation
Unknown
Doppler factor
Unknown
Orbital elements
Apogee altitude
688.229 km
Perigee altitude
603.486 km
Semi-major axis
7,023.995 km
Eccentricity
0.00603
Inclination
71.269°
RAAN
339.238°
Arg. of periapsis
15.9461°
True anomaly
344.16975°
Mean anomaly
344.3575°
Eccentric anomaly
344.26376°
Mean motion
3.68695 °/min
Orbital period
97.64 mins
BSTAR
0.0055509
Loading maneuver chart data...
Computing Atmospheric mass density...
Loading historical data...
Loading historical data...
Loading historical data...
Loading historical data...
Loading historical data...
Loading historical data...
Loading historical data...

Documentation

Showing up to 5 results
|